CZ-6A DEB, 54459

Orbit data source: Space-Track

CZ-6A DEB, 54459 is space debris in SSO originally from a launch on Fri, 11 Nov 2022 UTC launched from the Taiyaun Space Center, China (TSC). Debris objects in space refer to the collection of defunct objects orbiting the Earth. Examples of debris include non-operational satellites, rocket bodies, and fragments generated from explosions, collisions, or faulty payload assembly.

Loading next visibility...
Identifier
54459, 2022-151GK
Orbit
SSO
Country
Flag of CNCN / PRC
Related business
Manufacturer
SAST
Mission
Spacecraft
Bus & Motor
Unknown
Mass
Unknown
Launch date (UTC)
2022-11-11 (4 years ago)
Launch vehicle
Unknown
Launch site
Taiyaun Space Center, China (TSC)
Object type
Payload
Rocket body
Debris
Shape & HBR
Unknown shape, 0.2 m
Radar Cross Section
Medium (>0.1 m² and <1 m²)

Expand to show TLE details & history
Last TLE update: 2 days ago

TLE from 2 days ago
0 CZ-6A DEB
1 54459U 22151GK  26171.23252542  .00000701  00000-0  14516-3 0  9998
2 54459  98.6932 258.8094 0154950 238.6253 119.9706 14.56656586190998
Epoch: 2026-06-20T05:34Z
TLE epoch observation values (Epoch: 2026-06-20T05:34:50.196Z)
Latitude
-0.00002°
Longitude
-93.34985°
Altitude
763.048 km
Speed
7.443 km/s
True Right ascension
17h 15m 14s
True Declination
0° 00' 00"
Sunlit
Object was in full shadow at epoch
Visualization orbit readout
Latitude
Unknown
Longitude
Unknown
Altitude
Unknown
Speed
Unknown
Apparent Right ascension
Unknown
Apparent Declination
Unknown
Sunlit
N/A
Visualization observer readout
Local Sidereal Time
21:27:46
Azimuth
Unknown
Elevation
Unknown
Doppler factor
Unknown
Orbital elements
Apogee altitude
810.791 km
Perigee altitude
591.405 km
Semi-major axis
7,079.235 km
Eccentricity
0.0155
Inclination
98.6932°
RAAN
258.8094°
Arg. of periapsis
238.6253°
True anomaly
121.49384°
Mean anomaly
119.9706°
Eccentric anomaly
120.73371°
Mean motion
3.64388 °/min
Orbital period
98.8 mins
BSTAR
0.00014516
Loading maneuver chart data...
Computing Atmospheric mass density...
Loading historical data...
Loading historical data...
Loading historical data...
Loading historical data...
Loading historical data...
Loading historical data...
Loading historical data...

Documentation

Showing up to 5 results
|